This is the latest recevied weather packets stored in our database for station/object KI6PPU. If no packets are shown the sender has not sent any weather packets the latest 10 day(s).
| Time | Temp. | Humidity | Pressure | Rain* | Wind** | Luminosity | Snow |
|---|---|---|---|---|---|---|---|
| 1778005524 | 15.56° C | 78% | 1017.7 hPa | 0 mm | - | 516 W/m² | - |
| 1778005221 | 16.11° C | 80% | 1017.6 hPa | 0 mm | - | 428 W/m² | - |
| 1778004917 | 15° C | 80% | 1017.8 hPa | 0 mm | - | 372 W/m² | - |
| 1778004615 | 15° C | 83% | 1017.6 hPa | 0 mm | - | 325 W/m² | - |
| 1778004310 | 15° C | 83% | 1017.6 hPa | 0 mm | - | 314 W/m² | - |
| 1778004009 | 15° C | 79% | 1017.5 hPa | 0 mm | - | 314 W/m² | - |
| 1778003703 | 15.56° C | 79% | 1017.6 hPa | 0 mm | - | 411 W/m² | - |
| 1778003401 | 15° C | 80% | 1017.5 hPa | 0 mm | - | 491 W/m² | - |
| 1778003098 | 15° C | 83% | 1017.7 hPa | 0 mm | - | 351 W/m² | - |
| 1778002793 | 13.89° C | 82% | 1017.5 hPa | 0 mm | - | 351 W/m² | - |
| 1778002490 | 14.44° C | 80% | 1017.5 hPa | 0 mm | - | 330 W/m² | - |
| 1778002187 | 15° C | 79% | 1017.5 hPa | 0 mm | - | 491 W/m² | - |
| 1778001885 | 13.33° C | 84% | 1017.4 hPa | 0 mm | - | 321 W/m² | - |
| 1778001585 | 13.33° C | 83% | 1017.3 hPa | 0 mm | - | 239 W/m² | - |
| 1778001282 | 13.89° C | 85% | 1017.5 hPa | 0 mm | - | 256 W/m² | - |
| 1778000979 | 13.89° C | 87% | 1017.5 hPa | 0 mm | - | 379 W/m² | - |
| 1778000675 | 12.78° C | 87% | 1017.7 hPa | 0 mm | - | 295 W/m² | - |
| 1778000371 | 12.78° C | 87% | 1017.7 hPa | 0 mm | - | 202 W/m² | - |
| 1778000067 | 12.22° C | 88% | 1017.6 hPa | 0 mm | - | 192 W/m² | - |
| 1777999762 | 12.22° C | 90% | 1017.6 hPa | 0 mm | - | 224 W/m² | - |
| 1777999459 | 12.22° C | 90% | 1017.5 hPa | 0 mm | - | 258 W/m² | - |
| 1777999157 | 11.67° C | 93% | 1017.6 hPa | 0 mm | - | 274 W/m² | - |
| 1777998856 | 11.67° C | 95% | 1017.6 hPa | 0 mm | - | 223 W/m² | - |
| 1777998554 | 11.11° C | 97% | 1017.4 hPa | 0 mm | - | 177 W/m² | - |
| 1777998250 | 10.56° C | 97% | 1017.4 hPa | 0 mm | - | 187 W/m² | - |
* Rain latest hour (hover to see other rain measurements)
** Current wind speed in m/s (hover to see current wind gust speed)